Flag for Bahrain Weather past 2 weeks in Manama, Bahrain

Now
64 °F

Sunny.


Feels Like: 64 °F
Forecast: 65 / 74 °F
Wind: 6 mph from Southeast

Location: Bahrain International Airport

Current Time: Mar 2, 2015 at 7:11:45 AM

Latest Report: Mar 2, 2015 at 6:00 AM


Visibility: 10 mi

Pressure: 29.86 "Hg

Humidity: 78%

Dew point: 57 °F

Location of ManamaLocation

Historic Weather in Manama — Graph

°F

Manama temperature yesterday

Maximum temperature yesterday: 79 °F (at 2:00 PM)
Minimum temperature yesterday: 61 °F (at 4:00 AM)
Average temperature yesterday: 69 °F

Past Weeks' High & Low Weather Summary

 TemperatureHumidityPressure
High86 °F (Feb 20, 4:00 PM)94% (Feb 18, 5:00 AM)30.18 "Hg (Feb 18, 5:00 AM)
Low55 °F (Feb 23, 4:00 AM)23% (Mar 1, 2:00 PM)29.53 "Hg (Feb 20, 2:00 PM)
Average67 °F66%29.95 "Hg
* Reported Feb 15 5:00 AM — Mar 2 5:00 AM, Manama, Weather by CustomWeather, © 2015

Note: Actual official high and low records may vary slightly from our data, if they occured in-between our weather recording intervals... More about our weather records

Advertising

Manama weather history for previous 24 hours

 ConditionsComfort  
Time TempWeatherWind HumidityBarometerVisibility
5:00 AM
Mon, Mar 2
64 °FClear.7 mph78%29.83 "Hg10 mi
4:00 AM64 °FClear.6 mph83%29.83 "Hg10 mi
3:00 AM64 °FClear.7 mph83%29.83 "Hg10 mi
2:00 AM66 °FClear.7 mph73%29.83 "Hg10 mi
1:00 AM66 °FClear.8 mph73%29.86 "Hg10 mi
12:00 AM66 °FClear.8 mph73%29.86 "Hg10 mi
11:00 PM
Sun, Mar 1
68 °FClear.10 mph73%29.86 "Hg10 mi
10:00 PM68 °FClear.13 mph69%29.86 "Hg10 mi
9:00 PM68 °FClear.12 mph78%29.86 "Hg10 mi
8:00 PM68 °FClear.10 mph73%29.86 "Hg10 mi
7:00 PM72 °FClear.6 mph44%29.86 "Hg10 mi
6:00 PM72 °FClear.7 mph53%29.86 "Hg10 mi
5:00 PM72 °FSunny.9 mph47%29.86 "Hg10 mi
4:00 PM75 °FSunny.10 mph36%29.86 "Hg10 mi
3:00 PM79 °FSunny.5 mph26%29.86 "Hg10 mi
2:00 PM79 °FPassing clouds.6 mph23%29.89 "HgN/A
1:00 PM77 °FPassing clouds.7 mph28%29.89 "HgN/A
12:00 PM75 °FPassing clouds.8 mph39%29.92 "HgN/A
11:00 AM73 °FPassing clouds.8 mph44%29.95 "HgN/A
10:00 AM72 °FPassing clouds.8 mph41%29.98 "HgN/A
9:00 AM68 °FPassing clouds.6 mph53%29.98 "HgN/A
8:00 AM66 °FPassing clouds.5 mph68%29.98 "HgN/A
7:00 AM64 °FSunny.3 mph78%29.95 "Hg10 mi
Weather by CustomWeather, © 2015

See weather overviewHow to use our weather pages